TimeEST,TemperatureF,Dew PointF,Humidity,Sea Level PressureIn,VisibilityMPH,Wind Direction,Wind SpeedMPH,Gust SpeedMPH,PrecipitationIn,Events,Conditions,WindDirDegrees,DateUTC
12:22 AM,39.2,37.4,93,29.56,1.8,SW,4.6,-,0.00,,Overcast,220,2013-02-20 05:22:00
12:26 AM,41.0,39.2,93,29.56,3.0,SW,4.6,-,0.00,,Overcast,220,2013-02-20 05:26:00
12:38 AM,41.0,39.2,93,29.55,5.0,WSW,6.9,-,0.00,,Overcast,250,2013-02-20 05:38:00
12:53 AM,39.9,37.9,93,29.53,10.0,WSW,4.6,-,0.00,,Overcast,250,2013-02-20 05:53:00
1:53 AM,39.0,37.0,93,29.51,10.0,West,3.5,-,N/A,,Overcast,270,2013-02-20 06:53:00
2:53 AM,39.0,35.1,86,29.51,10.0,West,10.4,-,N/A,,Mostly Cloudy,260,2013-02-20 07:53:00
3:53 AM,39.0,35.1,86,29.51,10.0,West,9.2,-,N/A,,Mostly Cloudy,260,2013-02-20 08:53:00
4:53 AM,37.0,30.0,76,29.53,10.0,West,13.8,19.6,N/A,,Overcast,270,2013-02-20 09:53:00
5:53 AM,35.1,28.0,76,29.55,10.0,West,9.2,-,N/A,,Overcast,270,2013-02-20 10:53:00
6:53 AM,34.0,23.0,64,29.57,10.0,WNW,13.8,20.7,N/A,,Mostly Cloudy,290,2013-02-20 11:53:00
7:53 AM,33.8,19.4,56,29.61,10.0,West,18.4,25.3,N/A,,Mostly Cloudy,280,2013-02-20 12:53:00
8:53 AM,33.1,19.9,59,29.61,10.0,West,12.7,19.6,N/A,,Scattered Clouds,270,2013-02-20 13:53:00
9:53 AM,33.1,18.0,54,29.62,10.0,West,19.6,27.6,N/A,,Mostly Cloudy,270,2013-02-20 14:53:00
10:53 AM,33.1,16.0,50,29.62,10.0,West,17.3,26.5,N/A,,Overcast,280,2013-02-20 15:53:00
11:53 AM,33.1,15.1,48,29.62,10.0,West,13.8,25.3,N/A,,Overcast,260,2013-02-20 16:53:00
12:53 PM,33.1,12.9,43,29.60,10.0,West,15.0,28.8,N/A,,Overcast,260,2013-02-20 17:53:00
1:53 PM,33.1,12.9,43,29.60,10.0,West,16.1,26.5,N/A,,Overcast,280,2013-02-20 18:53:00
2:53 PM,33.1,10.9,40,29.60,10.0,West,13.8,34.5,N/A,,Overcast,270,2013-02-20 19:53:00
3:53 PM,33.1,10.9,40,29.62,10.0,West,15.0,26.5,N/A,,Overcast,270,2013-02-20 20:53:00
4:53 PM,32.0,10.0,40,29.62,10.0,West,15.0,25.3,N/A,,Scattered Clouds,270,2013-02-20 21:53:00
5:53 PM,30.0,10.0,43,29.66,10.0,West,10.4,27.6,N/A,,Clear,270,2013-02-20 22:53:00
6:53 PM,28.9,10.0,45,29.67,10.0,West,12.7,21.9,N/A,,Clear,270,2013-02-20 23:53:00
7:53 PM,28.9,10.0,45,29.68,10.0,WNW,15.0,21.9,N/A,,Overcast,290,2013-02-21 00:53:00
8:53 PM,28.0,10.0,47,29.70,10.0,West,12.7,18.4,N/A,,Overcast,280,2013-02-21 01:53:00
9:53 PM,27.0,10.9,51,29.71,10.0,West,9.2,19.6,N/A,,Clear,280,2013-02-21 02:53:00
10:53 PM,27.0,10.9,51,29.73,10.0,West,15.0,24.2,N/A,,Clear,270,2013-02-21 03:53:00
11:53 PM,27.0,12.0,53,29.74,10.0,West,9.2,19.6,N/A,,Clear,280,2013-02-21 04:53:00